DW8209 Gubbio IT current weather conditions

sailwx.info

Wind from 321 at 1 knots gusting 4

Air temperature 12.8° C
Dewpoint 7.0° C

Last reported at 2014-Oct-30 15:37 UTC.
Time now 2014-Oct-30 16:35 UTC

Location: N 43°19' E 012°34'.
View on Google Maps.

See reports from other nearby stations

  
Tides and Currents Weather Stations Pressure Air Temp Water Temp Dewpoint Dewpoint Depression Visibility Wind Speed Wind Dir Waves Ship Positions
date/time (UTC)wind fromknots sea level pressurealtimeterstation pressurevisibilityair tempwater tempwave heightnotes
2014-Oct-30 15:37 321 1 gusting 4 12.8
2014-Oct-30 15:22 006 1 gusting 4 13.3
2014-Oct-30 15:07 323 2 gusting 3 13.9
2014-Oct-30 14:52 345 2 gusting 5 14.4
2014-Oct-30 14:37 013 0 gusting 4 14.4
2014-Oct-30 14:21 349 3 gusting 5 14.4
2014-Oct-30 14:06 069 1 gusting 5 14.4
2014-Oct-30 13:51 043 2 gusting 5 14.4
2014-Oct-30 13:36 020 3 gusting 7 14.4
2014-Oct-30 13:21 037 3 gusting 6 14.4
2014-Oct-30 13:06 023 3 gusting 5 14.4
2014-Oct-30 12:51 044 3 gusting 6 14.4
2014-Oct-30 12:36 011 3 gusting 6 14.4
2014-Oct-30 12:21 315 3 gusting 6 14.4
2014-Oct-30 12:06 355 2 gusting 6 14.4
2014-Oct-30 11:51 347 3 gusting 6 14.4
2014-Oct-30 11:36 027 4 gusting 7 14.4
2014-Oct-30 11:21 043 4 gusting 6 13.9
2014-Oct-30 11:06 026 2 gusting 6 13.9
2014-Oct-30 10:51 146 13.9
2014-Oct-30 10:36 146 13.9
2014-Oct-30 10:21 143 1 gusting 3 13.3
2014-Oct-30 10:06 142 2 gusting 4 12.8
2014-Oct-30 09:51 149 11.7
2014-Oct-30 09:35 163 10.6
2014-Oct-30 09:20 146 0 gusting 2 9.4
2014-Oct-30 09:05 149 8.3
2014-Oct-30 08:50 150 7.2
2014-Oct-30 08:35 146 0 gusting 2 6.1
2014-Oct-30 08:20 153 6.1
2014-Oct-30 08:05 153 5.6
2014-Oct-30 07:50 163 5.0
2014-Oct-30 07:35 149 5.0
2014-Oct-30 07:20 152 4.4
2014-Oct-30 07:05 172 3.9
2014-Oct-30 06:50 156 3.3
2014-Oct-30 06:35 160 3.3
2014-Oct-30 06:20
2014-Oct-30 06:05
2014-Oct-30 05:50
2014-Oct-30 05:35
2014-Oct-30 05:20
2014-Oct-30 05:05
2014-Oct-30 04:50
2014-Oct-30 04:35
2014-Oct-30 04:20
2014-Oct-30 04:04
2014-Oct-30 03:49
2014-Oct-30 03:34
2014-Oct-30 03:19
2014-Oct-30 03:04
2014-Oct-30 02:49
2014-Oct-30 02:34
2014-Oct-30 02:19
2014-Oct-30 02:04
2014-Oct-30 01:49
2014-Oct-30 01:34
2014-Oct-30 01:19 200 5.6
2014-Oct-30 01:04 200 5.6
2014-Oct-30 00:49 200 6.1
2014-Oct-30 00:34 200 5.6
2014-Oct-30 00:19 200 5.6
2014-Oct-30 00:04 200 5.6
2014-Oct-29 23:49 201 5.6
2014-Oct-29 23:34 202 5.6
2014-Oct-29 23:19 201 5.6
2014-Oct-29 23:04 204 6.1
2014-Oct-29 22:49 204 6.1
2014-Oct-29 22:34 203 6.1
2014-Oct-29 22:19 203 5.6
2014-Oct-29 22:04 204 5.6
2014-Oct-29 21:48 204 5.6
2014-Oct-29 21:33 184 5.6
2014-Oct-29 21:18 178 5.6
2014-Oct-29 21:03 177 5.6
2014-Oct-29 20:48 177 6.1
2014-Oct-29 20:33 181 6.1
2014-Oct-29 20:18 181 6.1
2014-Oct-29 20:03 181 6.7
2014-Oct-29 19:48 181 6.7
2014-Oct-29 19:33 181 6.7
2014-Oct-29 19:18 181 7.2
2014-Oct-29 19:03 178 7.2
2014-Oct-29 18:48 177 7.8
2014-Oct-29 18:33 177 8.3
2014-Oct-29 18:18 168 8.9
2014-Oct-29 18:03 168 9.4
2014-Oct-29 17:48 168 10.0
2014-Oct-29 17:33 147 10.0
2014-Oct-29 17:18 163 10.6
2014-Oct-29 17:02 163 11.1
2014-Oct-29 16:47 163 11.1
2014-Oct-29 16:32 143 0 gusting 1 11.7
2014-Oct-29 16:17 207 12.2
2014-Oct-29 16:02 224 12.8
2014-Oct-29 15:47 216 0 gusting 2 13.3
2014-Oct-29 15:32 218 0 gusting 3 13.9
2014-Oct-29 15:17 162 14.4
2014-Oct-29 15:02 205 1 gusting 4 14.4
2014-Oct-29 14:47 174 0 gusting 5 15.0
2014-Oct-29 14:32 201 0 gusting 4 14.4
2014-Oct-29 14:17 186 0 gusting 2 14.4
2014-Oct-29 14:02 142 1 gusting 3 14.4
2014-Oct-29 13:47 138 13.9
2014-Oct-29 13:32 135 0 gusting 2 13.9
2014-Oct-29 13:17 139 14.4
2014-Oct-29 13:02 144 14.4
2014-Oct-29 12:47 143 13.9
2014-Oct-29 12:32 135 0 gusting 2 13.9
2014-Oct-29 12:16 142 0 gusting 2 13.9
2014-Oct-29 12:01 150 14.4
2014-Oct-29 11:46 300 13.9
2014-Oct-29 11:31 035 0 gusting 2 13.3
2014-Oct-29 11:16 007 13.3
2014-Oct-29 11:01 025 2 gusting 4 13.3
2014-Oct-29 10:46 030 1 gusting 3 13.3
2014-Oct-29 10:31 050 1 gusting 3 12.8
2014-Oct-29 10:16 025 0 gusting 2 12.8
2014-Oct-29 10:01 028 1 gusting 2 12.8
2014-Oct-29 09:46 019 12.8
2014-Oct-29 09:31 021 0 gusting 2 12.2
2014-Oct-29 09:16 352 11.7
2014-Oct-29 09:01 311 10.0
2014-Oct-29 08:46 333 9.4
2014-Oct-29 08:31 005 8.9
2014-Oct-29 08:16 006 0 gusting 1 8.9
2014-Oct-29 08:01 004 8.3
2014-Oct-29 07:46 273 7.8
2014-Oct-29 07:31 266 0 gusting 1 7.2
2014-Oct-29 07:16 268 7.2
2014-Oct-29 07:01 280 6.7
2014-Oct-29 06:46 281 6.1
2014-Oct-29 06:31 291 6.1
2014-Oct-29 06:16
2014-Oct-29 06:01
2014-Oct-29 05:46
2014-Oct-29 05:31
2014-Oct-29 05:16
2014-Oct-29 05:01
2014-Oct-29 04:45
2014-Oct-29 04:30
2014-Oct-29 03:45
2014-Oct-29 03:30
2014-Oct-29 03:15
2014-Oct-29 03:00
2014-Oct-29 02:45
2014-Oct-29 02:30
2014-Oct-29 02:15
2014-Oct-29 02:00
2014-Oct-29 01:45
2014-Oct-29 01:30 296 5.6
2014-Oct-29 01:00 302 4.4
2014-Oct-29 00:45 294 4.4
2014-Oct-29 00:30 283 4.4
2014-Oct-29 00:15 283 0 gusting 1 4.4
2014-Oct-29 00:00 295 3.9
2014-Oct-28 23:45 295 3.9
2014-Oct-28 23:31 287 0 gusting 1 3.9
2014-Oct-28 23:15 285 0 gusting 1 3.9
2014-Oct-28 23:00 287 3.9
2014-Oct-28 22:45 287 3.9
2014-Oct-28 22:30 290 0 gusting 1 4.4
2014-Oct-28 22:15 295 4.4
2014-Oct-28 22:00 323 4.4
2014-Oct-28 21:44 286 4.4
2014-Oct-28 21:29 287 4.4
2014-Oct-28 21:14 287 4.4
2014-Oct-28 20:59 287 5.0
2014-Oct-28 20:44 287 5.0
2014-Oct-28 20:29 287 5.0
2014-Oct-28 20:14 286 5.6
2014-Oct-28 19:59 263 5.6
2014-Oct-28 19:44 277 5.6
2014-Oct-28 19:29 239 5.6
2014-Oct-28 19:14 184 5.6
2014-Oct-28 18:59 184 6.7
2014-Oct-28 18:44 044 7.2
2014-Oct-28 18:29 260 7.2
2014-Oct-28 18:14 211 8.3
2014-Oct-28 17:59 016 1 gusting 4 9.4
2014-Oct-28 17:44 039 2 gusting 4 9.4
2014-Oct-28 17:29 065 9.4
2014-Oct-28 17:14 070 0 gusting 3 10.0
2014-Oct-28 16:58 057 0 gusting 3 10.0
2014-Oct-28 16:43 052 10.6
2014-Oct-28 16:28 084 10.6
2014-Oct-28 16:13 044 2 gusting 7 10.6